Group_ship,Cruise,JD_GMT,Date_DDMMYYYY,TIME_HH:MM:SS,Lat_dec_degree,Long_dec_degree,xCO2eq_ppm,xCO2a_ppm,Pres_Equi_hPa,Pres_sealevel_hPa,EqTemp_C,SST(TSG)_C,Sal(TSG)_Permil,Water_flow_l/min,Gasflow_IR_ml/min,Temp_IR_C,Pres_IR_hPa,Ship_heading_true_degree,Ship_speed_knot,Wind_dir_rel_degree,Wind_speed_rel_m/s,fCO2W@SST_uatm,Qcflag_water,fCO2a_uatm,Qcflag_air,dfCO2_uatm,Fluoro_ug/l,Wind_speed_true_m/s,Wind_dir_true_degree,Air_temp_C,Oxygen
AOML_Explorer,Ex0524E,164.222,13062005,5:19:07,25.76,-77.261,389.79,-9,1013.53,1010.76,26.94,27.2,36.443,1.19,83.19,31.54,1013.53,107.2,22.1,340,19.56,378.73,2,-9,9,-9,0.08,9.98,59.75,26.6,-9
AOML_Explorer,Ex0524E,164.223,13062005,5:21:40,25.755,-77.245,390.1,-9,1013.54,1010.77,26.96,27.23,36.452,1.2,82.98,31.53,1013.54,106.7,22.2,336,20.07,379.27,2,-9,9,-9,0.08,10.96,54.09,26.55,-9
AOML_Explorer,Ex0524E,164.225,13062005,5:24:13,25.751,-77.228,390.35,-9,1013.55,1010.48,26.97,27.17,36.453,1.2,83.15,31.53,1013.55,106.5,22.2,338,20.07,378.53,2,-9,9,-9,0.08,10.62,57.6,26.52,-9
AOML_Explorer,Ex0524E,164.227,13062005,5:26:46,25.746,-77.212,390.9,-9,1013.53,1010.79,26.95,27.14,36.443,1.18,82.71,31.53,1013.53,106.3,22.2,341,19.04,378.93,2,-9,9,-9,0.08,9.24,60.32,26.68,-9
AOML_Explorer,Ex0524E,164.229,13062005,5:29:19,25.742,-77.195,391.24,-9,1013.52,1010.78,26.92,27.1,36.441,1.2,83.11,31.53,1013.52,106.3,22.2,339,20.59,379.16,2,-9,9,-9,0.09,10.89,60.91,26.54,-9
AOML_Explorer,Ex0524E,164.23,13062005,5:31:52,25.737,-77.178,391.27,-9,1013.47,1010.78,26.89,27.06,36.44,1.18,83.29,31.52,1013.47,105.8,22.2,341,19.56,379.18,2,-9,9,-9,0.08,9.62,62.3,26.53,-9
AOML_Explorer,Ex0524E,164.232,13062005,5:34:25,25.733,-77.161,390.88,-9,1013.37,1010.5,26.85,27.01,36.446,1.19,83.43,31.52,1013.37,105.7,22.3,338,20.07,378.51,2,-9,9,-9,0.08,10.48,57.88,26.53,-9
AOML_Explorer,Ex0524E,164.234,13062005,5:36:58,25.729,-77.145,390.45,-9,1013.5,1010.47,26.82,26.95,36.447,1.21,82.42,31.51,1013.5,104.3,22.3,342,19.04,377.87,2,-9,9,-9,0.08,9.01,60.88,26.57,-9
AOML_Explorer,Ex0524E,164.236,13062005,5:39:31,25.726,-77.127,389.94,-9,1013.39,1010.51,26.77,27.18,36.486,1.21,83.3,31.51,1013.39,99.9,22.3,346,19.04,381.22,2,-9,9,-9,0.08,8.47,64.95,26.58,-9
AOML_Explorer,Ex0524E,164.238,13062005,5:42:04,25.724,-77.11,389.41,-9,1013.35,1010.23,26.75,27.16,36.49,1.2,83.27,31.5,1013.35,97,22.4,340,19.56,380.57,2,-9,9,-9,0.08,9.48,53.97,26.61,-9
AOML_Explorer,Ex0524E,164.239,13062005,5:44:37,25.722,-77.093,389.05,-9,1013.32,1010.52,26.89,27.16,36.462,1.2,81.05,31.5,1013.32,95.5,22.4,344,19.04,378.14,2,-9,9,-9,0.08,8.52,58.59,26.69,-9
AOML_Explorer,Ex0524E,164.241,13062005,5:47:10,25.72,-77.075,389.21,-9,1013.33,1010.19,26.91,27.13,36.431,1.21,83.35,31.5,1013.33,100.1,22.4,342,19.04,377.67,2,-9,9,-9,0.08,8.83,58.26,26.6,-9
AOML_Explorer,Ex0524E,164.243,13062005,5:49:43,25.717,-77.058,389.23,-9,1013.3,1010.5,26.89,27.18,36.409,1.23,83.22,31.49,1013.3,100,22.4,343,19.04,378.68,2,-9,9,-9,0.08,8.69,60.26,26.71,-9
AOML_Explorer,Ex0524E,164.245,13062005,5:52:16,25.714,-77.041,389.2,-9,1013.25,1010.47,26.89,27.2,36.433,1.2,82.77,31.49,1013.25,100,22.5,345,20.07,378.93,2,-9,9,-9,0.08,9.4,65.98,26.75,-9
AOML_Explorer,Ex0524E,164.246,13062005,5:54:49,25.712,-77.023,389.25,-9,1013.22,1010.19,26.94,27.23,36.445,1.22,82.44,31.48,1013.22,100.3,22.5,339,20.07,378.71,2,-9,9,-9,0.08,10.18,54.73,26.61,-9
AOML_Explorer,Ex0524E,164.248,13062005,5:57:22,25.709,-77.006,389.54,-9,1013.32,1010.24,26.95,27.2,36.455,1.21,83.09,31.48,1013.32,100.3,22.6,345,19.04,378.42,2,-9,9,-9,0.08,8.4,63.66,26.62,-9
AOML_Explorer,Ex0524E,164.25,13062005,5:59:55,25.706,-76.989,389.96,-9,1013.15,1010.2,26.97,27.2,36.443,1.2,81.93,31.47,1013.15,100.3,22.6,343,19.56,378.5,2,-9,9,-9,0.08,9.11,61.04,26.57,-9
AOML_Explorer,Ex0524E,164.262,13062005,6:16:34,25.69,-76.874,389.46,-9,1013.06,1009.94,27.1,27.42,36.665,1.18,82.88,31.51,1013.06,91.7,22.7,346,20.59,379.06,2,-9,9,-9,0.11,9.73,59.8,26.49,-9
AOML_Explorer,Ex0524E,164.263,13062005,6:19:07,25.689,-76.856,390.6,-9,1012.96,1009.94,27.12,27.38,36.67,1.22,82.33,31.51,1012.96,90.6,22.9,346,20.59,379.22,2,-9,9,-9,0.11,9.62,58.64,26.62,-9
AOML_Explorer,Ex0524E,164.265,13062005,6:21:40,25.689,-76.838,391.74,-9,1012.91,1009.95,27.13,27.37,36.664,1.14,82.77,31.52,1012.91,90.4,23,349,19.56,380.14,2,-9,9,-9,0.11,8.29,62.74,26.51,-9
AOML_Explorer,Ex0524E,164.267,13062005,6:24:13,25.689,-76.82,392.38,-9,1012.88,1010.24,27.11,27.37,36.652,1.15,80.92,31.52,1012.88,90.5,22.9,350,19.56,381.1,2,-9,9,-9,0.11,8.25,65.1,26.59,-9
AOML_Explorer,Ex0524E,164.269,13062005,6:26:46,25.689,-76.802,392.9,-9,1012.92,1009.94,27.1,27.38,36.656,1.16,83.29,31.51,1012.92,90.8,23,347,20.07,381.85,2,-9,9,-9,0.1,9,59.16,26.6,-9
AOML_Explorer,Ex0524E,164.27,13062005,6:29:19,25.689,-76.784,393.32,-9,1012.86,1009.92,27.1,27.38,36.657,1.16,82.62,31.51,1012.86,91,23.1,346,19.04,382.16,2,-9,9,-9,0.11,8.09,53.99,26.61,-9
AOML_Explorer,Ex0524E,164.272,13062005,6:31:52,25.689,-76.766,393.55,-9,1012.88,1009.91,27.11,27.38,36.665,1.21,83.41,31.51,1012.88,91.3,23.1,344,19.56,382.37,2,-9,9,-9,0.11,8.93,50.79,26.62,-9
AOML_Explorer,Ex0524E,164.274,13062005,6:34:25,25.688,-76.748,393.77,-9,1012.85,1009.93,27.11,27.4,36.665,1.19,82.65,31.51,1012.85,91,23.1,349,19.56,382.73,2,-9,9,-9,0.11,8.32,61.35,26.53,-9
AOML_Explorer,Ex0524E,164.276,13062005,6:36:58,25.688,-76.73,393.71,-9,1012.83,1009.96,27.12,27.44,36.657,1.21,82.55,31.51,1012.83,91.5,23.2,347,19.04,383.08,2,-9,9,-9,0.11,8.04,55.47,26.52,-9
AOML_Explorer,Ex0524E,164.277,13062005,6:39:31,25.688,-76.712,393.77,-9,1012.81,1009.96,27.13,27.5,36.665,1.2,81.5,31.51,1012.81,91.1,23.1,344,19.56,383.77,2,-9,9,-9,0.1,8.91,50.76,26.54,-9
AOML_Explorer,Ex0524E,164.279,13062005,6:42:04,25.687,-76.694,393.81,-9,1012.9,1009.69,27.17,27.35,36.582,1.17,82.18,31.51,1012.9,94.3,23.1,344,19.04,381.26,2,-9,9,-9,0.09,8.48,52.05,26.5,-9
AOML_Explorer,Ex0524E,164.281,13062005,6:44:37,25.686,-76.676,393.95,-9,1012.8,1009.7,27.16,27.25,36.523,1.17,82.43,31.5,1012.8,93.5,23.2,347,20.07,380.12,2,-9,9,-9,0.09,9.04,59.35,26.33,-9
AOML_Explorer,Ex0524E,164.283,13062005,6:47:10,25.685,-76.657,393.94,-9,1012.85,1009.92,27.07,27.23,36.489,1.17,82.62,31.5,1012.85,93.6,23.3,348,20.07,381.06,2,-9,9,-9,0.08,8.92,61.67,26.39,-9
AOML_Explorer,Ex0524E,164.285,13062005,6:49:43,25.684,-76.639,393.37,-9,1012.8,1009.71,27,27.18,36.459,1.2,82.27,31.5,1012.8,93.5,23.1,344,20.59,380.94,2,-9,9,-9,0.08,9.92,54.83,26.38,-9
AOML_Explorer,Ex0524E,164.286,13062005,6:52:16,25.682,-76.621,392.71,-9,1012.74,1009.69,26.96,27.24,36.478,1.22,82.55,31.49,1012.74,97,23.1,344,19.56,381.66,2,-9,9,-9,0.09,9.03,55.16,26.46,-9
AOML_Explorer,Ex0524E,164.288,13062005,6:54:49,25.68,-76.604,392.09,-9,1012.85,1009.69,26.94,27.24,36.469,1.21,82.62,31.49,1012.85,96.7,23,343,19.56,381.38,2,-9,9,-9,0.09,9.13,54.11,26.43,-9
AOML_Explorer,Ex0524E,164.29,13062005,6:57:22,25.679,-76.586,391.79,-9,1012.68,1009.68,26.99,27.29,36.498,1.22,82.24,31.49,1012.68,96.4,23,350,19.56,381.02,2,-9,9,-9,0.09,8.29,68.58,26.47,-9
AOML_Explorer,Ex0524E,164.292,13062005,6:59:55,25.677,-76.568,391.86,-9,1012.62,1009.67,26.99,27.32,36.556,1.24,81.97,31.49,1012.62,96.8,23,344,19.56,381.48,2,-9,9,-9,0.08,9.04,55.33,26.58,-9
AOML_Explorer,Ex0524E,164.303,13062005,7:16:34,25.66,-76.452,389.97,-9,1012.5,1009.72,26.92,27.19,36.478,1.22,82.4,31.54,1012.5,99.3,23,347,19.56,378.82,2,-9,9,-9,0.07,8.71,63.24,26.48,-9
AOML_Explorer,Ex0524E,164.305,13062005,7:19:07,25.658,-76.434,390.58,-9,1012.54,1009.63,26.92,27.2,36.512,1.23,83.11,31.54,1012.54,99.5,22.9,344,19.04,379.52,2,-9,9,-9,0.07,8.71,55.55,26.58,-9
AOML_Explorer,Ex0524E,164.307,13062005,7:21:40,25.655,-76.416,391.15,-9,1012.52,1009.69,26.93,27.25,36.544,1.21,82.93,31.54,1012.52,99.2,22.9,343,19.04,380.6,2,-9,9,-9,0.08,8.83,53.65,26.47,-9
AOML_Explorer,Ex0524E,164.308,13062005,7:24:13,25.652,-76.399,391.65,-9,1012.45,1009.4,26.99,27.3,36.536,1.21,83.06,31.54,1012.45,99.7,22.9,344,19.04,380.93,2,-9,9,-9,0.07,8.74,55.42,26.4,-9
AOML_Explorer,Ex0524E,164.31,13062005,7:26:46,25.65,-76.381,392.43,-9,1012.41,1009.35,26.99,27.25,36.528,1.23,83.06,31.54,1012.41,99.4,23,344,19.56,380.96,2,-9,9,-9,0.07,9.14,56.65,26.32,-9
AOML_Explorer,Ex0524E,164.312,13062005,7:29:19,25.647,-76.363,393.11,-9,1012.42,1009.35,27.01,27.2,36.624,1.23,83.11,31.54,1012.42,102.2,23,345,19.04,380.59,2,-9,9,-9,0.08,8.44,61.37,26.42,-9
AOML_Explorer,Ex0524E,164.314,13062005,7:31:52,25.643,-76.346,394.05,-9,1012.36,1009.63,27,27.03,36.775,1.19,81.7,31.53,1012.36,107.6,22.8,338,19.56,379.3,2,-9,9,-9,0.06,9.99,55.8,26.37,-9
AOML_Explorer,Ex0524E,164.316,13062005,7:34:25,25.637,-76.33,395.41,-9,1012.32,1009.43,26.87,27.03,36.755,1.21,82.26,31.53,1012.32,112.6,22.7,342,19.04,382.55,2,-9,9,-9,0.07,8.94,67.08,26.37,-9
AOML_Explorer,Ex0524E,164.323,13062005,7:44:37,25.604,-76.269,402.24,-9,1012.21,1009.68,26.81,27.05,36.788,1.21,82.23,31.52,1012.21,125.1,22.5,333,18.01,390.31,2,-9,9,-9,0.06,9.63,61.11,26.32,-9
AOML_Explorer,Ex0524E,164.324,13062005,7:47:10,25.595,-76.254,402.95,-9,1012.3,1009.35,26.8,27.04,36.795,1.24,81.49,31.52,1012.3,123.8,22.6,332,18.53,390.99,2,-9,9,-9,0.06,10.33,58.76,26.29,-9
AOML_Explorer,Ex0524E,164.326,13062005,7:49:43,25.586,-76.24,403.47,-9,1012.24,1009.68,26.81,27.04,36.795,1.23,82.21,31.52,1012.24,124.5,22.7,331,18.53,391.43,2,-9,9,-9,0.09,10.48,58.38,26.25,-9
AOML_Explorer,Ex0524E,164.328,13062005,7:52:16,25.577,-76.225,403.77,-9,1012.26,1009.67,26.81,27.06,36.767,1.2,82.15,31.51,1012.26,124.7,22.7,328,18.01,391.87,2,-9,9,-9,0.06,10.55,52.84,26.21,-9
AOML_Explorer,Ex0524E,164.33,13062005,7:54:49,25.568,-76.211,404.18,-9,1012.21,1009.69,26.8,27.02,36.767,1.21,82.57,31.51,1012.21,124.3,22.6,329,18.01,391.97,2,-9,9,-9,0.06,10.32,54.44,26.24,-9
AOML_Explorer,Ex0524E,164.332,13062005,7:57:22,25.559,-76.196,404.47,-9,1012.29,1009.68,26.81,27.02,36.752,1.23,82.49,31.51,1012.29,124.9,22.7,334,17.5,392.04,2,-9,9,-9,0.07,9,59.83,26.26,-9
AOML_Explorer,Ex0524E,164.333,13062005,7:59:55,25.55,-76.182,404.8,-9,1012.37,1009.89,26.79,26.99,36.743,1.2,81.49,31.51,1012.37,125.2,22.7,330,16.47,392.27,2,-9,9,-9,0.07,8.97,50.18,26.26,-9
AOML_Explorer,Ex0524E,164.345,13062005,8:16:34,25.49,-76.087,402.08,-9,1012.32,1009.36,26.81,27.06,36.778,1.2,82.31,31.55,1012.32,124.8,22.7,338,18.53,390.35,2,-9,9,-9,0.07,9.04,71.17,26.42,-9
AOML_Explorer,Ex0524E,164.347,13062005,8:19:07,25.481,-76.072,403.21,-9,1012.34,1009.43,26.79,27.12,36.724,1.2,82.8,31.55,1012.34,125,22.6,333,19.56,392.47,2,-9,9,-9,0.06,10.85,65.89,26.41,-9
AOML_Explorer,Ex0524E,164.348,13062005,8:21:40,25.472,-76.058,403.89,-9,1012.23,1009.41,26.84,27.09,36.733,1.22,82.78,31.55,1012.23,124.8,22.6,332,20.07,391.98,2,-9,9,-9,0.07,11.45,66.11,26.45,-9
AOML_Explorer,Ex0524E,164.35,13062005,8:24:13,25.463,-76.044,403.84,-9,1012.32,1009.68,26.85,27.09,36.731,1.18,82.26,31.55,1012.32,124.9,22.5,334,18.53,391.82,2,-9,9,-9,0.07,9.71,65,26.51,-9
AOML_Explorer,Ex0524E,164.352,13062005,8:26:46,25.454,-76.029,403.73,-9,1012.34,1009.4,26.85,27.12,36.725,1.24,82.36,31.56,1012.34,125,22.5,335,19.04,392.23,2,-9,9,-9,0.06,10.02,68.42,26.42,-9
AOML_Explorer,Ex0524E,164.354,13062005,8:29:19,25.445,-76.015,403.61,-9,1012.29,1009.68,26.84,27.14,36.739,1.22,82.88,31.56,1012.29,124.5,22.6,338,18.53,392.42,2,-9,9,-9,0.06,9.07,71.04,26.51,-9
AOML_Explorer,Ex0524E,164.355,13062005,8:31:52,25.435,-76,403.65,-9,1012.28,1009.64,26.87,27.15,36.74,1.2,82.67,31.55,1012.28,124.7,22.5,332,19.04,392.23,2,-9,9,-9,0.07,10.53,63.02,26.33,-9
AOML_Explorer,Ex0524E,164.357,13062005,8:34:25,25.426,-75.986,403.79,-9,1012.37,1009.68,26.88,27.16,36.718,1.24,81.91,31.55,1012.37,125,22.7,333,18.53,392.47,2,-9,9,-9,0.06,9.9,63.16,26.33,-9
AOML_Explorer,Ex0524E,164.359,13062005,8:36:58,25.417,-75.971,403.95,-9,1012.35,1009.41,26.89,27.18,36.701,1.22,82.73,31.55,1012.35,126.5,22.8,335,18.53,392.64,2,-9,9,-9,0.07,9.37,68.82,26.4,-9
AOML_Explorer,Ex0524E,164.361,13062005,8:39:31,25.408,-75.957,403.95,-9,1012.25,1009.43,26.91,27.2,36.679,1.21,82.72,31.55,1012.25,125,22.7,333,18.53,392.64,2,-9,9,-9,0.07,9.8,63.45,26.4,-9
AOML_Explorer,Ex0524E,164.363,13062005,8:42:04,25.398,-75.943,403.76,-9,1012.36,1009.65,26.92,27.23,36.643,1.21,81.28,31.55,1012.36,124.4,22.9,334,17.5,392.71,2,-9,9,-9,0.06,8.75,60.98,26.5,-9
AOML_Explorer,Ex0524E,164.364,13062005,8:44:37,25.389,-75.928,403.6,-9,1012.37,1009.71,26.94,27.25,36.632,1.21,81.41,31.54,1012.37,124.5,22.8,335,18.53,392.57,2,-9,9,-9,0.07,9.38,66.67,26.46,-9
AOML_Explorer,Ex0524E,164.366,13062005,8:47:10,25.38,-75.913,403.14,-9,1012.38,1009.68,26.96,27.25,36.622,1.26,82.29,31.54,1012.38,124.6,23,338,19.04,391.82,2,-9,9,-9,0.06,9.3,72.8,26.46,-9
AOML_Explorer,Ex0524E,164.368,13062005,8:49:43,25.371,-75.899,402.42,-9,1012.35,1009.65,26.98,27.25,36.603,1.22,82.11,31.54,1012.35,125,22.9,336,18.53,390.8,2,-9,9,-9,0.07,9.25,68,26.58,-9
AOML_Explorer,Ex0524E,164.37,13062005,8:52:16,25.361,-75.884,401.94,-9,1012.38,1009.4,26.98,27.28,36.583,1.2,82.4,31.54,1012.38,125.1,22.9,338,18.53,390.68,2,-9,9,-9,0.06,8.89,71.88,26.59,-9
AOML_Explorer,Ex0524E,164.371,13062005,8:54:49,25.352,-75.87,401.28,-9,1012.35,1009.64,26.99,27.28,36.582,1.24,82.13,31.53,1012.35,124.8,23,334,19.04,389.99,2,-9,9,-9,0.07,9.98,66.29,26.66,-9
AOML_Explorer,Ex0524E,164.373,13062005,8:57:22,25.343,-75.855,400.48,-9,1012.34,1009.14,27,27.28,36.578,1.24,82.56,31.53,1012.34,125.4,22.9,331,21.1,388.89,2,-9,9,-9,0.08,12.3,67.77,26.5,-9
AOML_Explorer,Ex0524E,164.375,13062005,8:59:55,25.333,-75.84,399.94,-9,1012.28,1009.43,27,27.26,36.571,1.22,83.2,31.52,1012.28,124.9,23,330,20.59,388.16,2,-9,9,-9,0.07,12,64.82,26.41,-9
AOML_Explorer,Ex0524E,164.388,13062005,9:19:07,25.263,-75.731,396.3,-9,1012.21,1009.68,26.99,27.1,36.622,1.24,82.11,31.56,1012.21,125.1,22.9,337,19.04,382.58,2,-9,9,-9,0.08,9.5,71.69,26.65,-9
AOML_Explorer,Ex0524E,164.39,13062005,9:21:40,25.254,-75.716,396.74,-9,1012.34,1009.68,26.93,27.01,36.615,1.25,82.79,31.56,1012.34,124.8,22.8,338,19.04,382.62,2,-9,9,-9,0.08,9.34,73.66,26.68,-9
AOML_Explorer,Ex0524E,164.392,13062005,9:24:13,25.244,-75.702,396.61,-9,1012.27,1009.43,26.83,27,36.593,1.24,82.48,31.56,1012.27,125.1,22.8,331,18.53,383.78,2,-9,9,-9,0.07,10.17,60.44,26.65,-9
AOML_Explorer,Ex0524E,164.394,13062005,9:26:46,25.235,-75.687,396.36,-9,1012.14,1009.36,26.76,27.02,36.606,1.23,81.7,31.56,1012.14,125.7,22.9,332,19.56,384.76,2,-9,9,-9,0.08,10.91,64.7,26.65,-9
AOML_Explorer,Ex0524E,164.395,13062005,9:29:19,25.226,-75.673,395.97,-9,1012.41,1009.71,26.77,27.01,36.593,1.23,82.23,31.56,1012.41,124.7,23,336,19.04,384.25,2,-9,9,-9,0.08,9.73,68.45,26.62,-9
AOML_Explorer,Ex0524E,164.397,13062005,9:31:52,25.216,-75.658,395.63,-9,1012.52,1009.42,26.75,27.07,36.597,1.24,81.5,31.56,1012.52,125.4,22.9,338,20.07,385.17,2,-9,9,-9,0.08,10.37,75.17,26.59,-9
AOML_Explorer,Ex0524E,164.399,13062005,9:34:25,25.207,-75.644,395.24,-9,1012.38,1009.68,26.77,27.13,36.609,1.24,82.68,31.56,1012.38,125.1,22.9,334,19.04,385.31,2,-9,9,-9,0.08,10.08,66.02,26.65,-9
AOML_Explorer,Ex0524E,164.401,13062005,9:36:58,25.198,-75.629,395.07,-9,1012.4,1009.42,26.83,27.16,36.616,1.26,82.79,31.55,1012.4,125,22.9,338,19.04,384.57,2,-9,9,-9,0.09,9.44,72.19,26.63,-9
AOML_Explorer,Ex0524E,164.402,13062005,9:39:31,25.189,-75.614,395.05,-9,1012.31,1009.36,26.87,27.13,36.619,1.2,82.51,31.55,1012.31,124.6,22.9,335,19.04,383.51,2,-9,9,-9,0.08,9.93,66.89,26.68,-9
AOML_Explorer,Ex0524E,164.404,13062005,9:42:04,25.179,-75.6,395.18,-9,1012.26,1009.41,26.89,27.01,36.637,1.21,82.12,31.55,1012.26,125.6,22.9,334,20.07,381.8,2,-9,9,-9,0.08,10.97,69.43,26.65,-9
AOML_Explorer,Ex0524E,164.406,13062005,9:44:37,25.17,-75.585,395.21,-9,1012.3,1009.4,26.85,27.04,36.602,1.24,82.26,31.54,1012.3,125.3,22.8,333,19.56,382.82,2,-9,9,-9,0.08,10.72,66.45,26.66,-9
AOML_Explorer,Ex0524E,164.408,13062005,9:47:10,25.161,-75.571,395.22,-9,1012.31,1009.46,26.79,27.19,36.583,1.25,82.54,31.54,1012.31,125.1,22.7,335,20.59,385.79,2,-9,9,-9,0.08,11.34,71.87,26.64,-9
AOML_Explorer,Ex0524E,164.41,13062005,9:49:43,25.151,-75.556,394.95,-9,1012.29,1009.42,26.82,27.17,36.615,1.23,82.26,31.54,1012.29,125.3,22.7,337,21.1,384.73,2,-9,9,-9,0.08,11.46,76.82,26.58,-9
AOML_Explorer,Ex0524E,164.411,13062005,9:52:16,25.142,-75.542,394.71,-9,1012.47,1009.44,26.91,26.95,36.656,1.24,82.33,31.54,1012.47,125,22.8,334,21.1,380.21,2,-9,9,-9,0.09,11.98,70.72,26.56,-9
AOML_Explorer,Ex0524E,164.417,13062005,9:59:55,25.115,-75.499,393.92,-9,1012.51,1009.69,26.4,26.44,36.579,1.25,82.58,31.53,1012.51,125.1,22.3,336,20.07,379.92,2,-9,9,-9,0.08,10.8,73.68,26.74,-9
AOML_Explorer,Ex0524E,164.43,13062005,10:19:07,25.046,-75.392,391.48,-9,1012.35,1009.4,26.7,27.11,36.574,1.23,82.24,31.58,1012.35,125.2,22.5,331,20.59,382.18,2,-9,9,-9,0.09,12.15,65.54,26.69,-9
AOML_Explorer,Ex0524E,164.432,13062005,10:21:40,25.037,-75.377,392.08,-9,1012.35,1009.64,26.76,27.21,36.581,1.25,81.74,31.58,1012.35,124.8,22.4,334,20.07,383.38,2,-9,9,-9,0.09,11.17,69.22,26.71,-9
AOML_Explorer,Ex0524E,164.433,13062005,10:24:13,25.027,-75.363,392.64,-9,1012.31,1009.43,26.85,27.24,36.617,1.27,82.29,31.58,1012.31,125.2,22.4,330,20.07,383.08,2,-9,9,-9,0.09,11.9,63.21,26.64,-9
AOML_Explorer,Ex0524E,164.435,13062005,10:26:46,25.018,-75.349,393.28,-9,1012.46,1009.65,26.93,27.25,36.622,1.23,82.77,31.58,1012.46,125.2,22.4,329,19.56,382.68,2,-9,9,-9,0.09,11.61,60.69,26.69,-9
AOML_Explorer,Ex0524E,164.437,13062005,10:29:19,25.009,-75.335,393.65,-9,1012.43,1009.69,26.95,27.19,36.643,1.24,80.84,31.58,1012.43,125.2,22.4,332,19.04,381.87,2,-9,9,-9,0.08,10.66,63.35,26.69,-9
AOML_Explorer,Ex0524E,164.439,13062005,10:31:52,25,-75.32,394.26,-9,1012.61,1009.65,26.96,27.2,36.627,1.24,80.53,31.58,1012.61,125.3,22.4,335,20.07,382.6,2,-9,9,-9,0.09,11,71.29,26.68,-9
AOML_Explorer,Ex0524E,164.441,13062005,10:34:25,24.991,-75.306,394.73,-9,1012.32,1009.71,26.94,27.03,36.639,1.25,82.51,31.58,1012.32,125.4,22.4,330,19.04,380.88,2,-9,9,-9,0.09,10.94,61.16,26.75,-9
AOML_Explorer,Ex0524E,164.442,13062005,10:36:58,24.981,-75.292,395.26,-9,1012.44,1009.7,26.9,26.92,36.635,1.25,82.26,31.58,1012.44,125.3,22.4,332,19.56,380.5,2,-9,9,-9,0.07,11.08,65.11,26.67,-9
AOML_Explorer,Ex0524E,164.444,13062005,10:39:31,24.972,-75.277,395.5,-9,1012.53,1009.71,26.76,27,36.617,1.24,81.79,31.57,1012.53,125.2,22.3,333,20.07,383.81,2,-9,9,-9,0.07,11.38,68.04,26.68,-9
AOML_Explorer,Ex0524E,164.446,13062005,10:42:04,24.963,-75.263,395.62,-9,1012.46,1009.72,26.7,27.06,36.637,1.24,82.14,31.57,1012.46,124.9,22.3,335,19.56,385.72,2,-9,9,-9,0.07,10.6,69.71,26.69,-9
AOML_Explorer,Ex0524E,164.448,13062005,10:44:37,24.954,-75.249,396,-9,1012.6,1009.65,26.77,27.07,36.639,1.24,81.96,31.57,1012.6,125.1,22.2,333,20.07,385.29,2,-9,9,-9,0.07,11.45,67.74,26.72,-9
AOML_Explorer,Ex0524E,164.449,13062005,10:47:10,24.945,-75.235,396.72,-9,1012.43,1009.69,26.8,27.12,36.626,1.21,82.25,31.56,1012.43,125.1,22.3,335,18.53,386.04,2,-9,9,-9,0.07,9.73,66.65,26.79,-9
AOML_Explorer,Ex0524E,164.451,13062005,10:49:43,24.936,-75.221,397.42,-9,1012.63,1009.71,26.82,27.15,36.612,1.22,82.16,31.56,1012.63,125.1,22.3,334,19.04,387.02,2,-9,9,-9,0.07,10.31,66.8,26.69,-9
AOML_Explorer,Ex0524E,164.453,13062005,10:52:16,24.927,-75.206,398.06,-9,1012.49,1009.71,26.85,27.19,36.612,1.24,82.39,31.56,1012.49,124.9,22.4,333,19.56,387.67,2,-9,9,-9,0.08,10.92,66.04,26.73,-9
AOML_Explorer,Ex0524E,164.455,13062005,10:54:49,24.918,-75.192,398.37,-9,1012.57,1009.72,26.9,27.19,36.612,1.22,82.27,31.56,1012.57,125.1,22.4,332,20.07,387.35,2,-9,9,-9,0.07,11.56,65.91,26.69,-9
AOML_Explorer,Ex0524E,164.457,13062005,10:57:22,24.908,-75.178,398.92,-9,1012.59,1009.94,26.92,27.18,36.612,1.26,82.15,31.56,1012.59,124.9,22.6,334,19.56,387.31,2,-9,9,-9,0.07,10.7,67.21,26.74,-9
AOML_Explorer,Ex0524E,164.458,13062005,10:59:55,24.899,-75.163,399.27,-9,1012.44,1009.69,26.92,27.14,36.617,1.23,81.82,31.56,1012.44,125.6,22.6,331,20.07,387.1,2,-9,9,-9,0.06,11.73,64.08,26.68,-9
AOML_Explorer,Ex0524E,164.472,13062005,11:19:07,24.83,-75.055,397.42,-9,1012.64,1009.71,26.86,27.19,36.824,1.25,82.58,31.6,1012.64,125.3,22.6,332,19.04,387.06,2,-9,9,-9,0.07,10.73,61.91,26.94,-9
AOML_Explorer,Ex0524E,164.473,13062005,11:21:40,24.82,-75.041,398.38,-9,1012.63,1009.71,26.9,27.2,36.828,1.22,82.58,31.6,1012.63,125,22.6,330,20.59,387.49,2,-9,9,-9,0.07,12.38,63.12,26.95,-9
AOML_Explorer,Ex0524E,164.475,13062005,11:24:13,24.811,-75.027,399.14,-9,1012.54,1009.96,26.91,27.2,36.846,1.26,82.43,31.6,1012.54,125.4,22.5,329,20.07,387.95,2,-9,9,-9,0.07,12.2,60.52,26.91,-9
AOML_Explorer,Ex0524E,164.477,13062005,11:26:46,24.802,-75.012,399.73,-9,1012.49,1009.7,26.92,27.18,36.854,1.25,82.33,31.6,1012.49,125.3,22.5,328,20.07,388.06,2,-9,9,-9,0.07,12.33,59.19,26.84,-9
AOML_Explorer,Ex0524E,164.479,13062005,11:29:19,24.793,-74.998,400.3,-9,1012.6,1009.94,26.93,27.19,36.837,1.22,83.12,31.59,1012.6,125.3,22.5,331,20.07,388.82,2,-9,9,-9,0.07,11.82,63.46,26.96,-9
AOML_Explorer,Ex0524E,164.48,13062005,11:31:52,24.784,-74.984,400.74,-9,1012.92,1009.96,26.91,27.12,36.8,1.23,82.5,31.59,1012.92,124.9,22.5,333,20.07,388.49,2,-9,9,-9,0.07,11.44,66.14,26.87,-9
AOML_Explorer,Ex0524E,164.482,13062005,11:34:25,24.774,-74.969,400.99,-9,1012.87,1009.94,26.91,27.02,36.757,1.24,83.17,31.58,1012.87,125.1,22.5,332,19.56,387.45,2,-9,9,-9,0.06,11.19,63.49,26.87,-9
AOML_Explorer,Ex0524E,164.484,13062005,11:36:58,24.765,-74.955,400.92,-9,1012.66,1009.95,26.84,27.03,36.73,1.25,82.1,31.58,1012.66,125.3,22.5,329,20.07,388.5,2,-9,9,-9,0.06,12.15,60.78,27.07,-9
AOML_Explorer,Ex0524E,164.486,13062005,11:39:31,24.756,-74.941,400.59,-9,1012.8,1009.99,26.77,27.03,36.645,1.25,82.74,31.57,1012.8,124.9,22.5,331,20.59,389.16,2,-9,9,-9,0.06,12.22,64.62,26.91,-9
AOML_Explorer,Ex0524E,164.488,13062005,11:42:04,24.747,-74.927,400.19,-9,1012.74,1009.98,26.74,27,36.772,1.24,82.54,31.57,1012.74,125.5,22.4,332,20.59,388.75,2,-9,9,-9,0.06,12.16,66.15,26.85,-9
AOML_Explorer,Ex0524E,164.489,13062005,11:44:37,24.738,-74.912,399.9,-9,1012.8,1009.95,26.79,27.04,36.733,1.22,81.49,31.57,1012.8,125.1,22.4,331,19.56,388.49,2,-9,9,-9,0.05,11.35,62.51,26.89,-9
AOML_Explorer,Ex0524E,164.491,13062005,11:47:10,24.729,-74.898,400.14,-9,1012.76,1009.98,26.73,27.05,36.797,1.25,82.54,31.56,1012.76,124.9,22.4,332,20.07,389.71,2,-9,9,-9,0.06,11.64,64.98,26.96,-9
AOML_Explorer,Ex0524E,164.493,13062005,11:49:43,24.719,-74.884,400.08,-9,1012.85,1009.98,26.78,27.04,36.789,1.23,82.68,31.56,1012.85,124.8,22.4,330,19.56,388.68,2,-9,9,-9,0.05,11.54,60.75,26.91,-9
AOML_Explorer,Ex0524E,164.495,13062005,11:52:16,24.71,-74.869,400.53,-9,1012.8,1009.99,26.78,27.04,36.787,1.24,82.51,31.55,1012.8,125.6,22.5,336,20.07,389.19,2,-9,9,-9,0.05,10.98,71.3,26.86,-9
AOML_Explorer,Ex0524E,164.496,13062005,11:54:49,24.701,-74.855,400.89,-9,1012.73,1009.72,26.78,27.03,36.788,1.23,82.52,31.55,1012.73,125.1,22.5,331,20.07,389.38,2,-9,9,-9,0.05,11.78,63.59,26.84,-9
AOML_Explorer,Ex0524E,164.498,13062005,11:57:22,24.692,-74.841,401.22,-9,1012.64,1009.97,26.78,27.02,36.781,1.24,82.11,31.54,1012.64,125.2,22.5,329,20.07,389.44,2,-9,9,-9,0.06,12.16,60.64,26.91,-9
AOML_Explorer,Ex0524E,164.5,13062005,11:59:55,24.683,-74.827,401.51,-9,1012.71,1009.97,26.77,26.99,36.765,1.23,82.61,31.54,1012.71,125.1,22.5,330,20.59,389.43,2,-9,9,-9,0.06,12.42,63.17,26.88,-9
AOML_Explorer,Ex0524E,164.513,13062005,12:19:07,24.613,-74.719,401.43,-9,1012.98,1009.98,26.84,27.14,36.761,1.23,82.94,31.59,1012.98,124.8,22.5,338,20.59,390.61,2,-9,9,-9,0.05,11.08,75.38,26.95,-9
AOML_Explorer,Ex0524E,164.515,13062005,12:21:40,24.604,-74.705,402.45,-9,1013.02,1009.99,26.87,27.13,36.769,1.22,83.23,31.59,1013.02,125.4,22.3,338,20.59,391.09,2,-9,9,-9,0.05,11.21,75.8,27.1,-9
AOML_Explorer,Ex0524E,164.517,13062005,12:24:13,24.595,-74.69,403.25,-9,1013.2,1009.99,26.88,27.08,36.764,1.23,81.6,31.6,1013.2,125.5,22.4,341,20.07,391.1,2,-9,9,-9,0.05,10.19,80.28,27.08,-9
AOML_Explorer,Ex0524E,164.519,13062005,12:26:46,24.586,-74.676,403.99,-9,1013.05,1009.98,26.85,27.09,36.744,1.21,82.29,31.59,1013.05,125,22.3,341,21.62,392.19,2,-9,9,-9,0.05,11.68,83.02,27.09,-9
AOML_Explorer,Ex0524E,164.52,13062005,12:29:19,24.577,-74.662,404.27,-9,1012.98,1009.98,26.83,27.09,36.754,1.24,82.63,31.59,1012.98,125.4,22.2,337,20.59,392.85,2,-9,9,-9,0.05,11.28,75.43,27.09,-9